Regional Weather Roundup
Issued by NWS Charleston, WV

Home | Current Version | Previous Version | Text Only | Print | Product List | Glossary On
Versions: 1 2 3 4 5 6 7 8 9 10 11 12 13 14 15 16 17 18 19 20 21 22 23 24 25 26 27 28 29 30 31 32 33 34 35 36 37 38 39 40 41 42 43 44 45 46 47 48 49 50
000
ASUS41 KRLX 092010
RWRRLX
CRWRWRRLX ALL
West Virginia Regional Weather Roundup
National Weather Service Charleston WV
Issued by National Weather Service Pittsburgh PA
300 PM EST FRI DEC 09 2016

Note: "fair" indicates few or no clouds below 12,000 feet with no
significant weather and/or obstructions to visibility.

WVZ003-092100-
Northern Panhandle of West Virginia

CITY           SKY/WX    TMP DP  RH WIND       PRES   REMARKS
WHEELING       LGT SNOW  24  17  74 W14G23    30.38R WCI  12
$$

WVZ009-092100-
Northwest West Virginia

CITY           SKY/WX    TMP DP  RH WIND       PRES   REMARKS
PARKERSBURG    PTSUNNY   29  14  53 W12G18    30.48R WCI  19
$$

WVZ006-092100-
Western West Virginia

CITY           SKY/WX    TMP DP  RH WIND       PRES   REMARKS
HUNTINGTON     CLOUDY    26  13  57 W7        30.51S WCI  18
$$

WVZ015-092100-
West Central West Virginia

CITY           SKY/WX    TMP DP  RH WIND       PRES   REMARKS
CHARLESTON     FLURRIES  26  15  63 W8        30.48R WCI  18
$$

WVZ031-092100-
North Central West Virginia

CITY           SKY/WX    TMP DP  RH WIND       PRES   REMARKS
CLARKSBURG     CLOUDY    27  15  61 W12       30.40R WCI  17
MORGANTOWN     CLOUDY    27  15  61 W9        30.38R WCI  18
$$

WVZ035-042-092100-
South Central West Virginia

CITY           SKY/WX    TMP DP  RH WIND       PRES   REMARKS
BECKLEY        FLURRIES  21  11  65 W12       30.37R WCI   9
BLUEFIELD      CLOUDY    19   8  62 NW9       30.35R WCI   8
$$

WVZ045-092100-
Greenbrier Valley of West Virginia

CITY           SKY/WX    TMP DP  RH WIND       PRES   REMARKS
LEWISBURG      NOT AVBL
$$

WVZ047-092100-
Northern Mountains of West Virginia

CITY           SKY/WX    TMP DP  RH WIND       PRES   REMARKS
ELKINS         CLOUDY    23  14  68 W5        30.36R WCI  17
$$

WVZ052-092100-
Eastern Panhandle of West Virginia

CITY           SKY/WX    TMP DP  RH WIND       PRES   REMARKS
MARTINSBURG    MOSUNNY   34  15  46 W15G22    30.33R WCI  24
PETERSBURG     CLOUDY    31  17  56 W9        30.38S WCI  23
$$




USA.gov is the U.S. government's official web portal to all federal, state and local government web resources and services.